Time,TemperatureF,DewpointF,PressureIn,WindDirection,WindDirectionDegrees,WindSpeedMPH,WindSpeedGustMPH,Humidity,HourlyPrecipIn,Conditions,Clouds,dailyrainin,SoftwareType,DateUTC
2013-11-02 00:13:00,32.0,29.0,29.85,WNW,290,0.0,2.0,88,0.00,,,0.00,,2013-11-02 05:13:00,
2013-11-02 00:22:00,32.0,29.0,29.86,WNW,291,2.0,3.0,87,0.00,,,0.00,,2013-11-02 05:22:00,
2013-11-02 00:42:00,31.0,28.0,29.86,West,271,0.0,2.0,88,0.00,,,0.00,,2013-11-02 05:42:00,
2013-11-02 00:52:00,30.0,27.0,29.86,West,277,0.0,1.0,90,0.00,,,0.00,,2013-11-02 05:52:00,
2013-11-02 01:12:00,29.0,26.0,29.86,West,280,0.0,0.0,90,0.00,,,0.00,,2013-11-02 06:12:00,
2013-11-02 01:22:00,29.0,27.0,29.87,West,276,2.0,3.0,92,0.00,,,0.00,,2013-11-02 06:22:00,
2013-11-02 01:52:00,29.0,27.0,29.88,WSW,253,0.0,1.0,92,0.00,,,0.00,,2013-11-02 06:52:00,
2013-11-02 02:12:00,30.0,28.0,29.88,West,274,0.0,2.0,93,0.00,,,0.00,,2013-11-02 07:12:00,
2013-11-02 02:22:00,31.0,29.0,29.88,West,262,1.0,2.0,94,0.00,,,0.00,,2013-11-02 07:22:00,
2013-11-02 02:42:00,32.0,30.0,29.88,WNW,294,0.0,2.0,93,0.00,,,0.00,,2013-11-02 07:42:00,
2013-11-02 02:52:00,33.0,31.0,29.88,West,277,1.0,3.0,92,0.00,,,0.00,,2013-11-02 07:52:00,
2013-11-02 03:12:00,34.0,32.0,29.88,WNW,283,1.0,3.0,91,0.00,,,0.00,,2013-11-02 08:12:00,
2013-11-02 03:22:00,34.0,32.0,29.88,West,278,0.0,2.0,91,0.00,,,0.00,,2013-11-02 08:22:00,
2013-11-02 03:42:00,34.0,32.0,29.89,West,281,1.0,3.0,91,0.00,,,0.00,,2013-11-02 08:42:00,
2013-11-02 03:52:00,34.0,32.0,29.89,WNW,290,1.0,3.0,91,0.00,,,0.00,,2013-11-02 08:52:00,
2013-11-02 04:11:00,34.0,32.0,29.89,West,265,0.0,4.0,91,0.00,,,0.00,,2013-11-02 09:11:00,
2013-11-02 04:21:00,34.0,32.0,29.89,WNW,286,0.0,2.0,91,0.00,,,0.00,,2013-11-02 09:21:00,
2013-11-02 04:43:00,33.0,31.0,29.90,West,281,2.0,3.0,92,0.00,,,0.00,,2013-11-02 09:43:00,
2013-11-02 04:53:00,34.0,32.0,29.90,WNW,284,3.0,5.0,93,0.00,,,0.00,,2013-11-02 09:53:00,
2013-11-02 05:13:00,35.0,33.0,29.91,WNW,290,2.0,6.0,91,0.00,,,0.00,,2013-11-02 10:13:00,
2013-11-02 05:23:00,35.0,32.0,29.91,West,266,0.0,2.0,90,0.00,,,0.00,,2013-11-02 10:23:00,
2013-11-02 05:52:00,35.0,33.0,29.91,WSW,253,1.0,3.0,91,0.00,,,0.00,,2013-11-02 10:52:00,
2013-11-02 06:12:00,35.0,32.0,29.92,WSW,252,1.0,3.0,90,0.00,,,0.00,,2013-11-02 11:12:00,
2013-11-02 06:22:00,35.0,33.0,29.92,West,273,1.0,3.0,91,0.00,,,0.00,,2013-11-02 11:22:00,
2013-11-02 06:42:00,35.0,33.0,29.92,WNW,284,0.0,1.0,91,0.00,,,0.00,,2013-11-02 11:42:00,
2013-11-02 06:52:00,34.0,31.0,29.92,WSW,240,1.0,3.0,90,0.00,,,0.00,,2013-11-02 11:52:00,
2013-11-02 07:21:00,31.0,29.0,29.92,West,276,0.0,1.0,92,0.00,,,0.00,,2013-11-02 12:21:00,
2013-11-02 07:42:00,31.0,29.0,29.92,West,274,0.0,1.0,93,0.00,,,0.00,,2013-11-02 12:42:00,
2013-11-02 07:52:00,31.0,29.0,29.92,West,264,1.0,2.0,94,0.00,,,0.00,,2013-11-02 12:52:00,
2013-11-02 08:12:00,31.0,29.0,29.93,West,274,0.0,3.0,93,0.00,,,0.00,,2013-11-02 13:12:00,
2013-11-02 08:22:00,30.0,28.0,29.92,WSW,246,0.0,2.0,92,0.00,,,0.00,,2013-11-02 13:22:00,
2013-11-02 08:42:00,28.0,27.0,29.93,West,269,1.0,2.0,94,0.00,,,0.00,,2013-11-02 13:42:00,
2013-11-02 08:52:00,28.0,27.0,29.92,West,270,0.0,2.0,94,0.00,,,0.00,,2013-11-02 13:52:00,
2013-11-02 09:11:00,28.0,27.0,29.93,WSW,250,1.0,2.0,94,0.00,,,0.00,,2013-11-02 14:11:00,
2013-11-02 09:21:00,28.0,27.0,29.93,West,259,0.0,2.0,94,0.00,,,0.00,,2013-11-02 14:21:00,
2013-11-02 09:42:00,29.0,28.0,29.94,West,273,1.0,2.0,95,0.00,,,0.00,,2013-11-02 14:42:00,
2013-11-02 09:52:00,31.0,30.0,29.95,West,270,1.0,3.0,95,0.00,,,0.00,,2013-11-02 14:52:00,
2013-11-02 10:11:00,32.0,30.0,29.95,West,263,1.0,4.0,93,0.00,,,0.00,,2013-11-02 15:11:00,
2013-11-02 10:22:00,33.0,31.0,29.96,WNW,284,3.0,5.0,93,0.00,,,0.00,,2013-11-02 15:22:00,
2013-11-02 10:43:00,34.0,32.0,29.95,WSW,245,3.0,6.0,91,0.00,,,0.00,,2013-11-02 15:43:00,
2013-11-02 10:53:00,36.0,33.0,29.96,West,266,3.0,6.0,90,0.00,,,0.00,,2013-11-02 15:53:00,
2013-11-02 11:23:00,38.0,34.0,29.96,West,270,3.0,7.0,87,0.00,,,0.00,,2013-11-02 16:23:00,
2013-11-02 11:42:00,40.0,36.0,29.97,NW,308,3.0,6.0,85,0.00,,,0.00,,2013-11-02 16:42:00,
2013-11-02 11:54:00,41.0,36.0,29.97,WNW,294,1.0,5.0,82,0.00,,,0.00,,2013-11-02 16:54:00,
2013-11-02 12:12:00,42.0,36.0,29.97,WNW,291,2.0,5.0,80,0.00,,,0.00,,2013-11-02 17:12:00,
2013-11-02 12:22:00,43.0,37.0,29.97,WNW,290,3.0,5.0,78,0.00,,,0.00,,2013-11-02 17:22:00,
2013-11-02 12:43:00,44.0,37.0,29.97,WNW,288,4.0,6.0,76,0.00,,,0.00,,2013-11-02 17:43:00,
2013-11-02 12:53:00,45.0,37.0,29.97,West,277,3.0,8.0,74,0.00,,,0.00,,2013-11-02 17:53:00,
2013-11-02 13:12:00,45.0,36.0,29.96,West,263,2.0,7.0,71,0.00,,,0.00,,2013-11-02 18:12:00,
2013-11-02 13:21:00,46.0,36.0,29.96,WNW,295,2.0,7.0,69,0.00,,,0.00,,2013-11-02 18:21:00,
2013-11-02 13:42:00,47.0,37.0,29.95,WSW,257,2.0,7.0,68,0.00,,,0.00,,2013-11-02 18:42:00,
2013-11-02 13:52:00,48.0,37.0,29.95,WNW,293,2.0,7.0,66,0.00,,,0.00,,2013-11-02 18:52:00,
2013-11-02 14:11:00,48.0,37.0,29.94,West,267,3.0,6.0,65,0.00,,,0.00,,2013-11-02 19:11:00,
2013-11-02 14:21:00,49.0,37.0,29.94,WSW,239,3.0,7.0,63,0.00,,,0.00,,2013-11-02 19:21:00,
2013-11-02 14:42:00,49.0,36.0,29.93,WSW,249,3.0,6.0,61,0.00,,,0.00,,2013-11-02 19:42:00,
2013-11-02 14:52:00,49.0,35.0,29.93,WNW,295,3.0,7.0,59,0.00,,,0.00,,2013-11-02 19:52:00,
2013-11-02 15:12:00,50.0,35.0,29.93,South,181,1.0,6.0,57,0.00,,,0.00,,2013-11-02 20:12:00,
2013-11-02 15:22:00,50.0,35.0,29.93,West,267,2.0,7.0,56,0.00,,,0.00,,2013-11-02 20:22:00,
2013-11-02 15:43:00,50.0,35.0,29.92,WNW,302,2.0,7.0,57,0.00,,,0.00,,2013-11-02 20:43:00,
2013-11-02 15:53:00,51.0,36.0,29.92,West,276,2.0,4.0,57,0.00,,,0.00,,2013-11-02 20:53:00,
2013-11-02 16:12:00,51.0,36.0,29.92,SW,219,4.0,7.0,56,0.00,,,0.00,,2013-11-02 21:12:00,
2013-11-02 16:22:00,51.0,35.0,29.92,WSW,250,1.0,9.0,54,0.00,,,0.00,,2013-11-02 21:22:00,
2013-11-02 16:44:00,52.0,36.0,29.92,SW,221,3.0,8.0,54,0.00,,,0.00,,2013-11-02 21:44:00,
2013-11-02 16:54:00,51.0,35.0,29.91,West,276,4.0,6.0,54,0.00,,,0.00,,2013-11-02 21:54:00,
2013-11-02 17:24:00,52.0,35.0,29.91,WSW,239,4.0,8.0,53,0.00,,,0.00,,2013-11-02 22:24:00,
2013-11-02 17:44:00,51.0,34.0,29.91,West,265,3.0,6.0,52,0.00,,,0.00,,2013-11-02 22:44:00,
2013-11-02 17:54:00,51.0,34.0,29.90,WSW,239,1.0,3.0,53,0.00,,,0.00,,2013-11-02 22:54:00,
2013-11-02 18:12:00,51.0,34.0,29.90,SW,226,0.0,2.0,53,0.00,,,0.00,,2013-11-02 23:12:00,
2013-11-02 18:22:00,50.0,34.0,29.89,SW,231,0.0,0.0,54,0.00,,,0.00,,2013-11-02 23:22:00,
2013-11-02 18:42:00,46.0,32.0,29.89,SW,226,0.0,1.0,58,0.00,,,0.00,,2013-11-02 23:42:00,
2013-11-02 18:52:00,43.0,32.0,29.89,SSW,203,0.0,1.0,65,0.00,,,0.00,,2013-11-02 23:52:00,
2013-11-02 19:11:00,41.0,32.0,29.89,SSE,163,0.0,1.0,70,0.00,,,0.00,,2013-11-03 00:11:00,
2013-11-02 19:22:00,40.0,32.0,29.89,SE,132,0.0,1.0,73,0.00,,,0.00,,2013-11-03 00:22:00,
2013-11-02 19:52:00,38.0,31.0,29.89,SE,133,1.0,3.0,77,0.00,,,0.00,,2013-11-03 00:52:00,
2013-11-02 20:11:00,39.0,32.0,29.90,SSE,158,1.0,2.0,77,0.00,,,0.00,,2013-11-03 01:11:00,
2013-11-02 20:21:00,40.0,33.0,29.90,SE,143,1.0,3.0,75,0.00,,,0.00,,2013-11-03 01:21:00,
2013-11-02 20:42:00,38.0,31.0,29.90,SSE,149,0.0,2.0,75,0.00,,,0.00,,2013-11-03 01:42:00,
2013-11-02 20:52:00,37.0,30.0,29.90,ESE,122,1.0,3.0,77,0.00,,,0.00,,2013-11-03 01:52:00,
2013-11-02 21:11:00,35.0,29.0,29.90,SE,134,0.0,2.0,80,0.00,,,0.00,,2013-11-03 02:11:00,
2013-11-02 21:21:00,34.0,29.0,29.89,ESE,111,0.0,1.0,82,0.00,,,0.00,,2013-11-03 02:21:00,
2013-11-02 21:52:00,33.0,28.0,29.89,SE,136,0.0,1.0,83,0.00,,,0.00,,2013-11-03 02:52:00,
2013-11-02 22:11:00,34.0,29.0,29.89,SE,137,1.0,2.0,82,0.00,,,0.00,,2013-11-03 03:11:00,
2013-11-02 22:22:00,33.0,28.0,29.89,ESE,121,1.0,3.0,81,0.00,,,0.00,,2013-11-03 03:22:00,
2013-11-02 22:45:00,33.0,28.0,29.89,SE,126,1.0,2.0,83,0.00,,,0.00,,2013-11-03 03:45:00,
2013-11-02 22:54:00,33.0,29.0,29.89,ESE,120,2.0,3.0,84,0.00,,,0.00,,2013-11-03 03:54:00,
2013-11-02 23:02:00,-999.0,-99.9,29.89,SE,143,2.0,4.0,-999,-99.99,,,-99.99,,2013-11-03 04:02:00,
2013-11-02 23:13:00,34.0,30.0,29.89,SE,143,2.0,4.0,84,0.00,,,0.00,,2013-11-03 04:13:00,
2013-11-02 23:23:00,33.0,28.0,29.89,SE,129,1.0,3.0,82,0.00,,,0.00,,2013-11-03 04:23:00,
2013-11-02 23:44:00,36.0,31.0,29.90,SSW,207,3.0,9.0,82,0.00,,,0.00,,2013-11-03 04:44:00,
2013-11-02 23:52:00,36.0,30.0,29.89,SSE,163,1.0,5.0,80,0.00,,,0.00,,2013-11-03 04:52:00,